Find Starlink 2373

NORAD ID: 47796 Int'l Des: 2021-018 Owner: SPXS Country: US Constellation: starlink operational
LEOCIRCULARSTARLINK_TYPE

現在のビュー

3D地球を読み込み中...

About Starlink 2373

Starlink 2373 (NORAD 47796) is a starlink constellation satellite (v1.0) launched Mar 11, 2021 by SPXS of US. It operates in LEO, CIRCULAR, STARLINK_TYPE orbit with a mass of 260.00 kg.

次回通過

Passes for default location (London). Set your location on the main map for personalized predictions.

高度履歴

Loading altitude history...

軌道要素

1 47796U 21018K 26265.88893674 .00036082 00000-0 81674-3 0 9997
2 47796 53.1546 36.1901 0000577 104.6120 255.4950 15.42811003307052
Epoch: Sep 22, 2026 • Age: 10 hours

現在のステータス

高度 440.5 km
遠地点 / 近地点 N/A
速度 7.65 km/s
衛星直下点 -10.28°S, 107.37°E
打ち上げ日 Mar 11, 2021
運用期間 5.5 years
タイプ internet

技術仕様

分類 Payload
質量 260.00 kg
乾燥質量 248.00 kg
長さ 0.20 m
スパン 9.00 m
形状 ? Box + pan
製造者 SPXS
バスタイプ Starlink
フェーズステータス In Orbit
所有者/国 SPXS/US

Most Searched